Location: Pensacola
(30.4142°N, 87.2155°W)
Time: 14:56:33
(UTC-06:00)

Cosmos 1741 Rocket - Pass Details

Date: 13 December 2023
Orbit: 760 x 780 km, 74.0° (Epoch: 29 February)

Event Time Altitude Azimuth Distance (km) Brightness Sun altitude
Rises 18:19:14 0° 343° (NNW) 3,265 7.3 -18.9°
Reaches altitude 10° 18:21:37 10° 344° (NNW) 2,335 6.5 -19.4°
Maximum altitude 18:26:57 89° 261° (W) 784 4.0 -20.5°
Drops below altitude 10° 18:32:14 10° 166° (SSE) 2,321 6.5 -21.6°
Sets 18:34:36 0° 166° (SSE) 3,243 7.3 -22.1°
